TimeCDT,TemperatureF,Dew PointF,Humidity,Sea Level PressureIn,VisibilityMPH,Wind Direction,Wind SpeedMPH,Gust SpeedMPH,PrecipitationIn,Events,Conditions,WindDirDegrees,DateUTC
12:53 AM,72.0,69.1,91,30.02,10.0,Calm,Calm,-,N/A,,Clear,0,2013-07-15 05:53:00
1:53 AM,71.1,68.0,90,30.01,10.0,Calm,Calm,-,N/A,,Clear,0,2013-07-15 06:53:00
2:53 AM,71.1,68.0,90,30.01,10.0,Calm,Calm,-,N/A,,Clear,0,2013-07-15 07:53:00
3:53 AM,70.0,68.0,93,30.01,10.0,Calm,Calm,-,N/A,,Clear,0,2013-07-15 08:53:00
4:53 AM,70.0,66.9,90,30.02,10.0,East,3.5,-,N/A,,Clear,80,2013-07-15 09:53:00
5:53 AM,70.0,66.9,90,30.04,10.0,Calm,Calm,-,N/A,,Clear,0,2013-07-15 10:53:00
6:53 AM,71.1,68.0,90,30.06,10.0,East,4.6,-,N/A,,Clear,80,2013-07-15 11:53:00
7:53 AM,73.9,70.0,87,30.08,10.0,East,4.6,-,N/A,,Clear,90,2013-07-15 12:53:00
8:53 AM,78.1,72.0,81,30.11,10.0,ESE,3.5,-,N/A,,Partly Cloudy,110,2013-07-15 13:53:00
9:48 AM,80.6,71.6,74,30.13,10.0,ESE,6.9,-,N/A,,Mostly Cloudy,110,2013-07-15 14:48:00
9:53 AM,81.0,72.0,74,30.11,10.0,East,6.9,-,N/A,,Mostly Cloudy,90,2013-07-15 14:53:00
10:13 AM,82.4,71.6,70,30.13,10.0,East,6.9,-,N/A,,Scattered Clouds,80,2013-07-15 15:13:00
10:28 AM,82.4,71.6,70,30.13,10.0,East,8.1,-,N/A,,Mostly Cloudy,100,2013-07-15 15:28:00
10:39 AM,82.4,71.6,70,30.13,10.0,Variable,5.8,-,N/A,,Mostly Cloudy,0,2013-07-15 15:39:00
10:53 AM,84.0,71.1,65,30.11,10.0,East,5.8,-,N/A,,Partly Cloudy,100,2013-07-15 15:53:00
11:53 AM,86.0,70.0,59,30.11,10.0,ESE,8.1,-,N/A,,Scattered Clouds,110,2013-07-15 16:53:00
12:53 PM,86.0,70.0,59,30.09,10.0,East,6.9,-,N/A,,Partly Cloudy,100,2013-07-15 17:53:00
1:53 PM,84.9,69.1,59,30.08,10.0,Calm,Calm,-,N/A,,Clear,0,2013-07-15 18:53:00
2:53 PM,84.9,72.0,65,30.08,10.0,Variable,4.6,-,N/A,,Clear,0,2013-07-15 19:53:00
3:53 PM,86.0,71.1,61,30.07,10.0,Variable,3.5,-,N/A,,Clear,0,2013-07-15 20:53:00
4:53 PM,78.1,73.9,87,30.07,9.0,SSE,10.4,-,0.01,Rain,Light Rain,150,2013-07-15 21:53:00
5:53 PM,77.0,73.9,90,30.07,10.0,Calm,Calm,-,0.01,,Scattered Clouds,0,2013-07-15 22:53:00
6:53 PM,78.1,73.0,84,30.08,10.0,Calm,Calm,-,0.00,,Mostly Cloudy,0,2013-07-15 23:53:00
7:53 PM,75.0,71.1,87,30.09,10.0,Calm,Calm,-,N/A,,Clear,0,2013-07-16 00:53:00
8:53 PM,75.0,72.0,90,30.11,10.0,Calm,Calm,-,N/A,,Clear,0,2013-07-16 01:53:00
9:53 PM,75.0,72.0,90,30.13,10.0,Calm,Calm,-,N/A,,Clear,0,2013-07-16 02:53:00
10:53 PM,75.0,71.1,87,30.12,10.0,Calm,Calm,-,N/A,,Clear,0,2013-07-16 03:53:00
11:53 PM,73.9,71.1,91,30.11,10.0,Calm,Calm,-,N/A,,Clear,0,2013-07-16 04:53:00